Voltar ao catálogo

COSMOS 1275 DEB

AtivoPO
NORAD 12730·DEBRIS·🇷🇺 Russia

Lançado Jun 4, 1981 de Plesetsk Cosmodrome

Loading…

Próximas Passagens (próximas 24 horas)

TLE

AtualizadoSource: Space-Track

Época: Sep 14, 2026, 10:02 UTC

1 12730U 81053BX  26257.41850844  .00002286  00000-0  76512-3 0  9998
2 12730  82.9355 299.3728 0016455 167.0437 253.1211 14.36960725309927

Acompanhe COSMOS 1275 DEB em tempo real com AllMySat

Download on the App Store